Location: Newark
(43.0658°N, 122.2322°W)
Time: 17:36:18
(UTC+00:00)

STARLINK-1686 - Pass Details

Date: 21 September 2020
Orbit: 378 x 381 km, 53.0° (Epoch: 28 October)

Event Time Altitude Azimuth Distance (km) Brightness Sun altitude
Exits shadow 12:09:34 15° 339° (NNW) 1,200 5.3 -19.8°
Maximum altitude 12:10:08 15° 352° (N) 1,175 5.4 -19.7°
Drops below altitude 10° 12:12:08 10° 30° (NNE) 1,446 6.5 -19.4°
Sets 12:14:50 0° 55° (NE) 2,296 8.2 -18.9°
